Satellite: NOAA-11 Catalog number: 19531 Epoch time: 13241.49675089 Element set: 489 Inclination: 098.7078 deg RA of node: 322.7893 deg Eccentricity: 0.0011916 Arg of perigee: 056.7437 deg Mean anomaly: 014.6697 deg Mean motion: 14.15026308 rev/day Decay rate: 3.4e-07 rev/day^2 Epoch rev: 28649 Checksum: 334
Satellite: NOAA-12 Catalog number: 21263 Epoch time: 13241.26126442 Element set: 955 Inclination: 098.6940 deg RA of node: 266.0558 deg Eccentricity: 0.0013759 Arg of perigee: 012.3960 deg Mean anomaly: 126.9218 deg Mean motion: 14.25583442 rev/day Decay rate: 3.3e-07 rev/day^2 Epoch rev: 15896 Checksum: 301
Satellite: MET-3/5 Catalog number: 21655 Epoch time: 13241.48253794 Element set: 771 Inclination: 082.5571 deg RA of node: 202.5042 deg Eccentricity: 0.0012174 Arg of perigee: 310.0136 deg Mean anomaly: 049.9917 deg Mean motion: 13.17048534 rev/day Decay rate: -5.9e-07 rev/day^2 Epoch rev: 5958 Checksum: 295
Satellite: MET-2/21 Catalog number: 22782 Epoch time: 13241.51127596 Element set: 830 Inclination: 082.5483 deg RA of node: 044.7332 deg Eccentricity: 0.0022149 Arg of perigee: 007.0295 deg Mean anomaly: 026.2052 deg Mean motion: 13.83710856 rev/day Decay rate: 3.8e-07 rev/day^2 Epoch rev: 978 Checksum: 283
Satellite: OKEAN-4 Catalog number: 23317 Epoch time: 13241.12958550 Element set: 308 Inclination: 082.5424 deg RA of node: 341.5159 deg Eccentricity: 0.0020241 Arg of perigee: 349.0577 deg Mean anomaly: 102.8495 deg Mean motion: 14.84608986 rev/day Decay rate: 7.08e-06 rev/day^2 Epoch rev: 1976 Checksum: 305
Satellite: NOAA-14 Catalog number: 23455 Epoch time: 13241.45527020 Element set: 433 Inclination: 098.8004 deg RA of node: 324.7747 deg Eccentricity: 0.0010329 Arg of perigee: 145.7385 deg Mean anomaly: 273.2740 deg Mean motion: 14.13918564 rev/day Decay rate: -1.3e-07 rev/day^2 Epoch rev: 96272 Checksum: 290
Satellite: NOAA-15 Catalog number: 25338 Epoch time: 13241.45787359 Element set: 854 Inclination: 098.7307 deg RA of node: 231.2868 deg Eccentricity: 0.0009435 Arg of perigee: 274.6318 deg Mean anomaly: 238.7894 deg Mean motion: 14.25259797 rev/day Decay rate: 1.00e-06 rev/day^2 Epoch rev: 79528 Checksum: 353
Satellite: RESURS Catalog number: 25394 Epoch time: 13241.50547966 Element set: 456 Inclination: 098.3702 deg RA of node: 213.8586 deg Eccentricity: 0.0002254 Arg of perigee: 067.1821 deg Mean anomaly: 080.4656 deg Mean motion: 14.24334680 rev/day Decay rate: -8.0e-08 rev/day^2 Epoch rev: 78679 Checksum: 312
Satellite: FENGYUN1 Catalog number: 25730 Epoch time: 13241.53262148 Element set: 951 Inclination: 098.8838 deg RA of node: 200.1643 deg Eccentricity: 0.0024682 Arg of perigee: 200.9012 deg Mean anomaly: 273.0502 deg Mean motion: 14.10620738 rev/day Decay rate: 6.19e-06 rev/day^2 Epoch rev: 73638 Checksum: 274
Satellite: OKEAN-0 Catalog number: 25860 Epoch time: 13241.86462745 Element set: 33 Inclination: 097.9985 deg RA of node: 203.3612 deg Eccentricity: 0.0000780 Arg of perigee: 114.8363 deg Mean anomaly: 278.6447 deg Mean motion: 14.74681403 rev/day Decay rate: 3.48e-06 rev/day^2 Epoch rev: 75921 Checksum: 310
Satellite: NOAA-16 Catalog number: 26536 Epoch time: 13241.27439340 Element set: 342 Inclination: 099.0357 deg RA of node: 294.7385 deg Eccentricity: 0.0009486 Arg of perigee: 289.9568 deg Mean anomaly: 112.3623 deg Mean motion: 14.12909664 rev/day Decay rate: 1.99e-06 rev/day^2 Epoch rev: 66689 Checksum: 350
Satellite: NOAA-17 Catalog number: 27453 Epoch time: 13241.48387190 Element set: 251 Inclination: 098.3130 deg RA of node: 251.6799 deg Eccentricity: 0.0010582 Arg of perigee: 314.0455 deg Mean anomaly: 209.6983 deg Mean motion: 14.24614248 rev/day Decay rate: 7.8e-07 rev/day^2 Epoch rev: 58115 Checksum: 308
Satellite: NOAA-18 Catalog number: 28654 Epoch time: 13241.51376825 Element set: 737 Inclination: 099.1081 deg RA of node: 210.8143 deg Eccentricity: 0.0014310 Arg of perigee: 007.6078 deg Mean anomaly: 140.9289 deg Mean motion: 14.11857163 rev/day Decay rate: 3.5e-07 rev/day^2 Epoch rev: 42640 Checksum: 288
Satellite: NOAA-19 Catalog number: 33591 Epoch time: 13241.47606772 Element set: 918 Inclination: 098.9076 deg RA of node: 182.9785 deg Eccentricity: 0.0013364 Arg of perigee: 219.2533 deg Mean anomaly: 277.0073 deg Mean motion: 14.11541514 rev/day Decay rate: 2.40e-06 rev/day^2 Epoch rev: 23483 Checksum: 309
/EX SB KEPS @ AMSAT $ORB13241.M Orbital Elements 13241.MISC
HR AMSAT ORBITAL ELEMENTS FOR MANNED AND MISCELLANEOUS SATELLITES FROM WA5QGD FORT WORTH,TX August 29, 2013 BID: ORB13241.M TO ALL RADIO AMATEURS BT
Satellite: HUBBLE Catalog number: 20580 Epoch time: 13241.78355964 Element set: 320 Inclination: 028.4694 deg RA of node: 150.2844 deg Eccentricity: 0.0003331 Arg of perigee: 057.5160 deg Mean anomaly: 302.5634 deg Mean motion: 15.03879000 rev/day Decay rate: 1.253e-05 rev/day^2 Epoch rev: 8078 Checksum: 267
Satellite: ISS Catalog number: 25544 Epoch time: 13241.88809028 Element set: 488 Inclination: 051.6495 deg RA of node: 103.1298 deg Eccentricity: 0.0004520 Arg of perigee: 013.6606 deg Mean anomaly: 177.8610 deg Mean motion: 15.50597434 rev/day Decay rate: 8.187e-05 rev/day^2 Epoch rev: 84613 Checksum: 308
Satellite: CO-58 Catalog number: 28895 Epoch time: 13240.60122180 Element set: 558 Inclination: 097.8615 deg RA of node: 092.3628 deg Eccentricity: 0.0017072 Arg of perigee: 209.3360 deg Mean anomaly: 150.6885 deg Mean motion: 14.61210346 rev/day Decay rate: 3.89e-06 rev/day^2 Epoch rev: 41751 Checksum: 308
Satellite: FALCON Catalog number: 30776 Epoch time: 13240.82597775 Element set: 684 Inclination: 035.4302 deg RA of node: 116.1814 deg Eccentricity: 0.0002410 Arg of perigee: 247.9529 deg Mean anomaly: 182.4236 deg Mean motion: 15.11265329 rev/day Decay rate: 3.703e-05 rev/day^2 Epoch rev: 35641 Checksum: 286
Satellite: MAST Catalog number: 31126 Epoch time: 13241.13528043 Element set: 839 Inclination: 097.8868 deg RA of node: 232.9175 deg Eccentricity: 0.0093407 Arg of perigee: 184.3362 deg Mean anomaly: 268.1887 deg Mean motion: 14.54655236 rev/day Decay rate: 3.07e-06 rev/day^2 Epoch rev: 33792 Checksum: 319
Satellite: CAPE1 Catalog number: 31130 Epoch time: 13241.49608852 Element set: 841 Inclination: 097.9044 deg RA of node: 229.6443 deg Eccentricity: 0.0100275 Arg of perigee: 199.4000 deg Mean anomaly: 160.3370 deg Mean motion: 14.53598752 rev/day Decay rate: 3.06e-06 rev/day^2 Epoch rev: 33742 Checksum: 282
Satellite: COMPASS Catalog number: 32787 Epoch time: 13241.14615064 Element set: 715 Inclination: 097.7463 deg RA of node: 297.8035 deg Eccentricity: 0.0015869 Arg of perigee: 067.8207 deg Mean anomaly: 292.4691 deg Mean motion: 14.85795401 rev/day Decay rate: 2.599e-05 rev/day^2 Epoch rev: 28879 Checksum: 351
Satellite: AAUSAT2 Catalog number: 32788 Epoch time: 13241.80471867 Element set: 698 Inclination: 097.7472 deg RA of node: 299.1346 deg Eccentricity: 0.0015267 Arg of perigee: 065.3294 deg Mean anomaly: 294.9510 deg Mean motion: 14.86285582 rev/day Decay rate: 2.243e-05 rev/day^2 Epoch rev: 28893 Checksum: 353
Satellite: DO-64 Catalog number: 32789 Epoch time: 13241.16363602 Element set: 729 Inclination: 097.7626 deg RA of node: 302.7294 deg Eccentricity: 0.0014487 Arg of perigee: 059.9715 deg Mean anomaly: 356.6040 deg Mean motion: 14.89130928 rev/day Decay rate: 3.571e-05 rev/day^2 Epoch rev: 28898 Checksum: 348
Satellite: CO-66 Catalog number: 32791 Epoch time: 13241.16033730 Element set: 693 Inclination: 097.7459 deg RA of node: 297.0832 deg Eccentricity: 0.0016300 Arg of perigee: 069.5145 deg Mean anomaly: 324.4232 deg Mean motion: 14.84882516 rev/day Decay rate: 1.279e-05 rev/day^2 Epoch rev: 28870 Checksum: 318
Satellite: RS-30 Catalog number: 32953 Epoch time: 13241.78719253 Element set: 166 Inclination: 082.5018 deg RA of node: 022.4109 deg Eccentricity: 0.0019604 Arg of perigee: 073.2243 deg Mean anomaly: 287.0988 deg Mean motion: 12.43036539 rev/day Decay rate: 1.0e-07 rev/day^2 Epoch rev: 23905 Checksum: 283
Satellite: METEOR-M Catalog number: 35865 Epoch time: 13241.76123734 Element set: 763 Inclination: 098.5955 deg RA of node: 292.3523 deg Eccentricity: 0.0001747 Arg of perigee: 208.1292 deg Mean anomaly: 151.9791 deg Mean motion: 14.21891908 rev/day Decay rate: -1.7e-07 rev/day^2 Epoch rev: 20492 Checksum: 310
Satellite: RS-38 Catalog number: 35869 Epoch time: 13241.71138807 Element set: 712 Inclination: 098.5902 deg RA of node: 292.1979 deg Eccentricity: 0.0003925 Arg of perigee: 215.2876 deg Mean anomaly: 144.8031 deg Mean motion: 14.22142272 rev/day Decay rate: 3.2e-07 rev/day^2 Epoch rev: 20494 Checksum: 303
Satellite: JUGNU Catalog number: 37839 Epoch time: 13241.15369105 Element set: 451 Inclination: 019.9604 deg RA of node: 224.6626 deg Eccentricity: 0.0019217 Arg of perigee: 007.7287 deg Mean anomaly: 075.5928 deg Mean motion: 14.12176491 rev/day Decay rate: 3.69e-06 rev/day^2 Epoch rev: 9722 Checksum: 308
Satellite: SRMSAT Catalog number: 37841 Epoch time: 13241.16736472 Element set: 452 Inclination: 019.9708 deg RA of node: 238.0802 deg Eccentricity: 0.0011904 Arg of perigee: 319.3106 deg Mean anomaly: 108.1864 deg Mean motion: 14.10243426 rev/day Decay rate: 3.57e-06 rev/day^2 Epoch rev: 9708 Checksum: 279
Satellite: RAX-2 Catalog number: 37853 Epoch time: 13241.72551453 Element set: 580 Inclination: 101.7017 deg RA of node: 129.4531 deg Eccentricity: 0.0233282 Arg of perigee: 176.4892 deg Mean anomaly: 218.3783 deg Mean motion: 14.84162356 rev/day Decay rate: 2.696e-05 rev/day^2 Epoch rev: 9935 Checksum: 313
